| time (UTC) | temp F | wind direction | speed knots | gust knots | rain 1hr in | rain 24hr in | rain mn in | humidity % | barometer mb |
| 20260507064703 | 53 | 0 | 0.0 | 0.0 | 0.00 | 0.00 | 0.00 | 19 | 1014.4 |
| 20260507064505 | 53 | 75 | 0.0 | 0.0 | 0.00 | 0.00 | 0.00 | 9 | 1014.4 |
| 20260507064304 | 53 | 62 | 0.0 | 0.9 | 0.00 | 0.00 | 0.00 | 9 | 1014.3 |
| 20260507064103 | 53 | 63 | 0.0 | 0.9 | 0.00 | 0.00 | 0.00 | 9 | 1014.3 |
| 20260507063904 | 53 | 103 | 0.0 | 0.9 | 0.00 | 0.00 | 0.00 | 7 | 1014.4 |
| 20260507063704 | 53 | 78 | 0.0 | 0.9 | 0.00 | 0.00 | 0.00 | 4 | 1014.4 |
| 20260507063505 | 53 | 69 | 0.0 | 0.9 | 0.00 | 0.00 | 0.00 | 3 | 1014.3 |
| 20260507063308 | 53 | 0 | 0.0 | 0.0 | 0.00 | 0.00 | 0.00 | 1 | 1014.4 |
| 20260507063104 | 52 | 0 | 0.0 | 0.0 | 0.00 | 0.00 | 0.00 | 1 | 1014.3 |
| 20260507062904 | 52 | 75 | 0.0 | 0.0 | 0.00 | 0.00 | 0.00 | 1 | 1014.4 |
| 20260507062717 | 52 | 62 | 0.0 | 0.0 | 0.00 | 0.00 | 0.00 | 1 | 1014.3 |
| 20260507062504 | 52 | 69 | 0.0 | 0.0 | 0.00 | 0.00 | 0.00 | 1 | 1014.3 |
| 20260507062306 | 51 | 59 | 0.0 | 0.0 | 0.00 | 0.00 | 0.00 | 1 | 1014.2 |
| 20260507062103 | 51 | 69 | 0.0 | 0.0 | 0.00 | 0.00 | 0.00 | 1 | 1014.2 |
| 20260507061904 | 51 | 68 | 0.0 | 0.0 | 0.00 | 0.00 | 0.00 | 1 | 1014.3 |
| 20260507061705 | 51 | 61 | 0.0 | 0.0 | 0.00 | 0.00 | 0.00 | 1 | 1014.3 |
| 20260507061505 | 51 | 69 | 0.0 | 0.0 | 0.00 | 0.00 | 0.00 | 1 | 1014.2 |
| 20260507061304 | 50 | 71 | 0.0 | 0.0 | 0.00 | 0.00 | 0.00 | 1 | 1014.2 |
| 20260507061104 | 50 | 0 | 0.0 | 0.0 | 0.00 | 0.00 | 0.00 | 1 | 1014.1 |
| 20260507060904 | 49 | 0 | 0.0 | 0.0 | 0.00 | 0.00 | 0.00 | 1 | 1014.2 |
| 20260507060704 | 49 | 73 | 0.0 | 0.0 | 0.00 | 0.00 | 0.00 | 1 | 1014.2 |
| 20260507060506 | 49 | 80 | 0.0 | 0.0 | 0.00 | 0.00 | 0.00 | 1 | 1014.1 |
| 20260507060303 | 49 | 78 | 0.0 | 0.0 | 0.00 | 0.00 | 0.00 | 1 | 1014.1 |
| 20260507060103 | 49 | 78 | 0.0 | 0.0 | 0.00 | 0.00 | 0.00 | 1 | 1014.2 |
| 20260507055903 | 48 | 76 | 0.0 | 0.0 | 0.00 | 0.00 | 0.00 | 1 | 1014.1 |
| 20260507055702 | 48 | 76 | 0.0 | 0.0 | 0.00 | 0.00 | 0.00 | 1 | 1014.0 |
| 20260507055503 | 48 | 78 | 0.0 | 0.0 | 0.00 | 0.00 | 0.00 | 1 | 1014.0 |
| 20260507055306 | 47 | 76 | 0.0 | 0.0 | 0.00 | 0.00 | 0.00 | 1 | 1014.1 |
| 20260507055104 | 47 | 76 | 0.0 | 0.0 | 0.00 | 0.00 | 0.00 | 1 | 1014.0 |
| 20260507054902 | 47 | 76 | 0.0 | 0.0 | 0.00 | 0.00 | 0.00 | 1 | 1014.0 |
| 20260507054702 | 47 | 76 | 0.0 | 0.0 | 0.00 | 0.00 | 0.00 | 1 | 1013.9 |
| 20260507054502 | 46 | 0 | 0.0 | 0.0 | 0.00 | 0.00 | 0.00 | 1 | 1014.0 |
| 20260507054303 | 46 | 0 | 0.0 | 0.0 | 0.00 | 0.00 | 0.00 | 1 | 1014.0 |
| 20260507054102 | 46 | 0 | 0.0 | 0.0 | 0.00 | 0.00 | 0.00 | 1 | 1014.0 |
| 20260507053902 | 46 | 0 | 0.0 | 0.0 | 0.00 | 0.00 | 0.00 | 1 | 1013.8 |
| 20260507053702 | 46 | 0 | 0.0 | 0.0 | 0.00 | 0.00 | 0.00 | 1 | 1013.9 |
| 20260507053504 | 45 | 0 | 0.0 | 0.0 | 0.00 | 0.00 | 0.00 | 1 | 1013.9 |
| 20260507053302 | 45 | 76 | 0.0 | 0.0 | 0.00 | 0.00 | 0.00 | 1 | 1013.9 |
| 20260507053102 | 45 | 0 | 0.0 | 0.0 | 0.00 | 0.00 | 0.00 | 1 | 1013.8 |
| 20260507052903 | 45 | 76 | 0.0 | 0.0 | 0.00 | 0.00 | 0.00 | 1 | 1013.8 |
| 20260507052702 | 45 | 76 | 0.0 | 0.0 | 0.00 | 0.00 | 0.00 | 1 | 1013.8 |
| 20260507052504 | 44 | 76 | 0.0 | 0.0 | 0.00 | 0.00 | 0.00 | 1 | 1013.7 |
| 20260507052306 | 44 | 76 | 0.0 | 0.0 | 0.00 | 0.00 | 0.00 | 1 | 1013.7 |
| 20260507052102 | 44 | 76 | 0.0 | 0.0 | 0.00 | 0.00 | 0.00 | 1 | 1013.7 |
| 20260507051903 | 44 | 0 | 0.0 | 0.0 | 0.00 | 0.00 | 0.00 | 1 | 1013.7 |
| 20260507051704 | 44 | 76 | 0.0 | 0.0 | 0.00 | 0.00 | 0.00 | 1 | 1013.6 |
| 20260507051504 | 44 | 76 | 0.0 | 0.0 | 0.00 | 0.00 | 0.00 | 1 | 1013.6 |
| 20260507051305 | 44 | 76 | 0.0 | 0.0 | 0.00 | 0.00 | 0.00 | 1 | 1013.6 |
| 20260507051103 | 43 | 0 | 0.0 | 0.0 | 0.00 | 0.00 | 0.00 | 1 | 1013.6 |
| 20260507050904 | 43 | 76 | 0.0 | 0.0 | 0.00 | 0.00 | 0.00 | 1 | 1013.5 |
| 20260507050703 | 43 | 76 | 0.0 | 0.0 | 0.00 | 0.00 | 0.00 | 1 | 1013.5 |
| 20260507050505 | 43 | 76 | 0.0 | 0.0 | 0.00 | 0.00 | 0.00 | 1 | 1013.5 |
| 20260507050304 | 43 | 76 | 0.0 | 0.0 | 0.00 | 0.00 | 0.00 | 1 | 1013.4 |
| 20260507050103 | 43 | 76 | 0.0 | 0.0 | 0.00 | 0.00 | 0.00 | 1 | 1013.4 |
| 20260507045903 | 43 | 76 | 0.0 | 0.0 | 0.00 | 0.00 | 0.00 | 1 | 1013.5 |
| 20260507045704 | 42 | 0 | 0.0 | 0.0 | 0.00 | 0.00 | 0.00 | 1 | 1013.4 |
| 20260507045505 | 42 | 76 | 0.0 | 0.0 | 0.00 | 0.00 | 0.00 | 1 | 1013.5 |
| 20260507045306 | 42 | 76 | 0.0 | 0.0 | 0.00 | 0.00 | 0.00 | 1 | 1013.5 |
| 20260507045104 | 42 | 76 | 0.0 | 0.0 | 0.00 | 0.00 | 0.00 | 1 | 1013.5 |
| 20260507044904 | 42 | 76 | 0.0 | 0.0 | 0.00 | 0.00 | 0.00 | 1 | 1013.4 |
| 20260507044704 | 42 | 76 | 0.0 | 0.0 | 0.00 | 0.00 | 0.00 | 1 | 1013.4 |
| 20260507044506 | 42 | 76 | 0.0 | 0.0 | 0.00 | 0.00 | 0.00 | 1 | 1013.4 |
| 20260507044304 | 42 | 76 | 0.0 | 0.0 | 0.00 | 0.00 | 0.00 | 1 | 1013.3 |
| 20260507044103 | 42 | 76 | 0.0 | 0.0 | 0.00 | 0.00 | 0.00 | 1 | 1013.4 |
| 20260507043904 | 42 | 76 | 0.0 | 0.0 | 0.00 | 0.00 | 0.00 | 1 | 1013.4 |
| 20260507043703 | 42 | 76 | 0.0 | 0.0 | 0.00 | 0.00 | 0.00 | 1 | 1013.3 |
| 20260507043503 | 42 | 76 | 0.0 | 0.0 | 0.00 | 0.00 | 0.00 | 1 | 1013.4 |
| 20260507043304 | 42 | 78 | 0.0 | 0.0 | 0.00 | 0.00 | 0.00 | 1 | 1013.4 |
| 20260507043103 | 42 | 76 | 0.0 | 0.0 | 0.00 | 0.00 | 0.00 | 1 | 1013.4 |
| 20260507042905 | 42 | 76 | 0.0 | 0.0 | 0.00 | 0.00 | 0.00 | 1 | 1013.3 |
| 20260507042703 | 42 | 76 | 0.0 | 0.0 | 0.00 | 0.00 | 0.00 | 1 | 1013.3 |
| 20260507042503 | 42 | 0 | 0.0 | 0.0 | 0.00 | 0.00 | 0.00 | 1 | 1013.2 |
| 20260507042306 | 42 | 0 | 0.0 | 0.0 | 0.00 | 0.00 | 0.00 | 1 | 1013.3 |
| 20260507042104 | 42 | 0 | 0.0 | 0.0 | 0.00 | 0.00 | 0.00 | 1 | 1013.3 |
| 20260507041903 | 42 | 0 | 0.0 | 0.0 | 0.00 | 0.00 | 0.00 | 1 | 1013.2 |
| 20260507041704 | 42 | 0 | 0.0 | 0.0 | 0.00 | 0.00 | 0.00 | 1 | 1013.2 |
| 20260507041503 | 42 | 0 | 0.0 | 0.0 | 0.00 | 0.00 | 0.00 | 1 | 1013.1 |
| 20260507041304 | 42 | 0 | 0.0 | 0.0 | 0.00 | 0.00 | 0.00 | 1 | 1013.2 |
| 20260507041103 | 42 | 76 | 0.0 | 0.0 | 0.00 | 0.00 | 0.00 | 1 | 1013.2 |
| 20260507040905 | 42 | 76 | 0.0 | 0.0 | 0.00 | 0.00 | 0.00 | 1 | 1013.1 |
| 20260507040702 | 42 | 76 | 0.0 | 0.0 | 0.00 | 0.00 | 0.00 | 1 | 1013.2 |
| 20260507040503 | 42 | 76 | 0.0 | 0.0 | 0.00 | 0.00 | 0.00 | 1 | 1013.2 |
| 20260507040304 | 42 | 76 | 0.0 | 0.0 | 0.00 | 0.00 | 0.00 | 1 | 1013.1 |
| 20260507040104 | 42 | 76 | 0.0 | 0.0 | 0.00 | 0.00 | 0.00 | 1 | 1013.2 |
| 20260507035904 | 42 | 76 | 0.0 | 0.0 | 0.00 | 0.00 | 0.00 | 1 | 1013.1 |
| 20260507035704 | 42 | 76 | 0.0 | 0.0 | 0.00 | 0.00 | 0.00 | 1 | 1013.1 |
| 20260507035504 | 42 | 76 | 0.0 | 0.0 | 0.00 | 0.00 | 0.00 | 1 | 1013.1 |
| 20260507035306 | 42 | 76 | 0.0 | 0.0 | 0.00 | 0.00 | 0.00 | 1 | 1013.1 |
| 20260507035104 | 42 | 76 | 0.0 | 0.0 | 0.00 | 0.00 | 0.00 | 1 | 1013.1 |
| 20260507034903 | 42 | 76 | 0.0 | 0.0 | 0.00 | 0.00 | 0.00 | 1 | 1013.2 |
| 20260507034704 | 42 | 76 | 0.0 | 0.0 | 0.00 | 0.00 | 0.00 | 1 | 1013.2 |
| 20260507034505 | 42 | 76 | 0.0 | 0.0 | 0.00 | 0.00 | 0.00 | 1 | 1013.1 |
| 20260507034304 | 42 | 76 | 0.0 | 0.0 | 0.00 | 0.00 | 0.00 | 1 | 1013.1 |
| 20260507034103 | 42 | 76 | 0.0 | 0.0 | 0.00 | 0.00 | 0.00 | 1 | 1013.0 |
| 20260507033904 | 42 | 76 | 0.0 | 0.0 | 0.00 | 0.00 | 0.00 | 1 | 1013.0 |
| 20260507033703 | 42 | 76 | 0.0 | 0.0 | 0.00 | 0.00 | 0.00 | 1 | 1013.0 |
| 20260507033505 | 42 | 76 | 0.0 | 0.0 | 0.00 | 0.00 | 0.00 | 1 | 1013.0 |
| 20260507033303 | 42 | 76 | 0.0 | 0.0 | 0.00 | 0.00 | 0.00 | 1 | 1013.0 |
| 20260507033105 | 42 | 76 | 0.0 | 0.0 | 0.00 | 0.00 | 0.00 | 1 | 1013.0 |
| 20260507032904 | 42 | 76 | 0.0 | 0.0 | 0.00 | 0.00 | 0.00 | 1 | 1013.0 |
| 20260507032703 | 42 | 76 | 0.0 | 0.0 | 0.00 | 0.00 | 0.00 | 1 | 1013.0 |
| 20260507032504 | 42 | 76 | 0.0 | 0.0 | 0.00 | 0.00 | 0.00 | 1 | 1013.0 |
| 20260507032305 | 42 | 76 | 0.0 | 0.0 | 0.00 | 0.00 | 0.00 | 1 | 1013.0 |
| 20260507032104 | 42 | 76 | 0.0 | 0.0 | 0.00 | 0.00 | 0.00 | 1 | 1012.9 |
| 20260507031903 | 42 | 76 | 0.0 | 0.0 | 0.00 | 0.00 | 0.00 | 1 | 1013.0 |
| 20260507031705 | 42 | 76 | 0.0 | 0.0 | 0.00 | 0.00 | 0.00 | 1 | 1013.0 |
| 20260507031504 | 42 | 76 | 0.0 | 0.0 | 0.00 | 0.00 | 0.00 | 1 | 1013.0 |
| 20260507031304 | 42 | 76 | 0.0 | 0.0 | 0.00 | 0.00 | 0.00 | 1 | 1012.9 |
| 20260507031104 | 42 | 76 | 0.0 | 0.0 | 0.00 | 0.00 | 0.00 | 1 | 1012.9 |
| 20260507030905 | 42 | 76 | 0.0 | 0.0 | 0.00 | 0.00 | 0.00 | 1 | 1012.8 |
| 20260507030706 | 42 | 76 | 0.0 | 0.0 | 0.00 | 0.00 | 0.00 | 1 | 1012.9 |
| 20260507030505 | 42 | 76 | 0.0 | 0.0 | 0.00 | 0.00 | 0.00 | 1 | 1012.8 |
| 20260507030305 | 42 | 76 | 0.0 | 0.0 | 0.00 | 0.00 | 0.00 | 1 | 1012.9 |
| 20260507030105 | 42 | 76 | 0.0 | 0.0 | 0.00 | 0.00 | 0.00 | 1 | 1012.8 |
| 20260507025905 | 42 | 76 | 0.0 | 0.0 | 0.00 | 0.00 | 0.00 | 1 | 1012.8 |
| 20260507025705 | 42 | 76 | 0.0 | 0.0 | 0.00 | 0.00 | 0.00 | 1 | 1012.8 |
| 20260507025506 | 42 | 76 | 0.0 | 0.0 | 0.00 | 0.00 | 0.00 | 1 | 1012.8 |
| 20260507025306 | 42 | 76 | 0.0 | 0.0 | 0.00 | 0.00 | 0.00 | 1 | 1012.9 |
| 20260507025105 | 42 | 76 | 0.0 | 0.0 | 0.00 | 0.00 | 0.00 | 1 | 1012.9 |
| 20260507024905 | 42 | 76 | 0.0 | 0.0 | 0.00 | 0.00 | 0.00 | 1 | 1012.8 |
| 20260507024705 | 42 | 76 | 0.0 | 0.0 | 0.00 | 0.00 | 0.00 | 1 | 1012.9 |
| 20260507024506 | 42 | 76 | 0.0 | 0.0 | 0.00 | 0.00 | 0.00 | 1 | 1012.9 |
| 20260507024306 | 42 | 76 | 0.0 | 0.0 | 0.00 | 0.00 | 0.00 | 1 | 1012.8 |
| 20260507024105 | 42 | 76 | 0.0 | 0.0 | 0.00 | 0.00 | 0.00 | 1 | 1012.8 |
| 20260507023906 | 42 | 76 | 0.0 | 0.0 | 0.00 | 0.00 | 0.00 | 1 | 1012.8 |
| 20260507023705 | 42 | 76 | 0.0 | 0.0 | 0.00 | 0.00 | 0.00 | 1 | 1012.8 |
| 20260507023508 | 42 | 76 | 0.0 | 0.0 | 0.00 | 0.00 | 0.00 | 1 | 1012.8 |
| 20260507023305 | 42 | 76 | 0.0 | 0.0 | 0.00 | 0.00 | 0.00 | 1 | 1012.8 |
| 20260507023104 | 42 | 76 | 0.0 | 0.0 | 0.00 | 0.00 | 0.00 | 1 | 1012.8 |
| 20260507022906 | 42 | 76 | 0.0 | 0.0 | 0.00 | 0.00 | 0.00 | 1 | 1012.7 |
| 20260507022705 | 42 | 76 | 0.0 | 0.0 | 0.00 | 0.00 | 0.00 | 1 | 1012.8 |
| 20260507022507 | 42 | 76 | 0.0 | 0.0 | 0.00 | 0.00 | 0.00 | 1 | 1012.7 |
| 20260507022306 | 42 | 76 | 0.0 | 0.0 | 0.00 | 0.00 | 0.00 | 1 | 1012.7 |
| 20260507022105 | 42 | 76 | 0.0 | 0.0 | 0.00 | 0.00 | 0.00 | 1 | 1012.7 |
| 20260507021905 | 42 | 76 | 0.0 | 0.0 | 0.00 | 0.00 | 0.00 | 1 | 1012.7 |
| 20260507021706 | 42 | 76 | 0.0 | 0.0 | 0.00 | 0.00 | 0.00 | 1 | 1012.7 |
| 20260507021507 | 42 | 76 | 0.0 | 0.0 | 0.00 | 0.00 | 0.00 | 1 | 1012.5 |
| 20260507021305 | 42 | 76 | 0.0 | 0.0 | 0.00 | 0.00 | 0.00 | 1 | 1012.6 |
| 20260507021106 | 42 | 76 | 0.0 | 0.0 | 0.00 | 0.00 | 0.00 | 1 | 1012.5 |
| 20260507020905 | 42 | 76 | 0.0 | 0.0 | 0.00 | 0.00 | 0.00 | 1 | 1012.5 |
| 20260507020705 | 42 | 76 | 0.0 | 0.0 | 0.00 | 0.00 | 0.00 | 1 | 1012.5 |
| 20260507020506 | 42 | 76 | 0.0 | 0.0 | 0.00 | 0.00 | 0.00 | 1 | 1012.5 |
| 20260507020305 | 42 | 76 | 0.0 | 0.0 | 0.00 | 0.00 | 0.00 | 1 | 1012.6 |
| 20260507020105 | 42 | 76 | 0.0 | 0.0 | 0.00 | 0.00 | 0.00 | 1 | 1012.5 |
| 20260507015905 | 42 | 76 | 0.0 | 0.0 | 0.00 | 0.00 | 0.00 | 1 | 1012.5 |
| 20260507015705 | 42 | 76 | 0.0 | 0.0 | 0.00 | 0.00 | 0.00 | 1 | 1012.5 |
| 20260507015506 | 42 | 76 | 0.0 | 0.0 | 0.00 | 0.00 | 0.00 | 1 | 1012.5 |
| 20260507015306 | 42 | 76 | 0.0 | 0.0 | 0.00 | 0.00 | 0.00 | 1 | 1012.5 |
| 20260507015105 | 42 | 76 | 0.0 | 0.0 | 0.00 | 0.00 | 0.00 | 1 | 1012.5 |
| 20260507014905 | 42 | 76 | 0.0 | 0.0 | 0.00 | 0.00 | 0.00 | 1 | 1012.5 |
| 20260507014707 | 42 | 76 | 0.0 | 0.0 | 0.00 | 0.00 | 0.00 | 1 | 1012.5 |
| 20260507014506 | 42 | 76 | 0.0 | 0.0 | 0.00 | 0.00 | 0.00 | 1 | 1012.4 |
| 20260507014305 | 42 | 76 | 0.0 | 0.0 | 0.00 | 0.00 | 0.00 | 1 | 1012.4 |
| 20260507014105 | 42 | 76 | 0.0 | 0.0 | 0.00 | 0.00 | 0.00 | 1 | 1012.4 |
| 20260507013905 | 42 | 76 | 0.0 | 0.0 | 0.00 | 0.00 | 0.00 | 1 | 1012.4 |
| 20260507013705 | 43 | 76 | 0.0 | 0.0 | 0.00 | 0.00 | 0.00 | 1 | 1012.4 |
| 20260507013506 | 43 | 0 | 0.0 | 0.0 | 0.00 | 0.00 | 0.00 | 1 | 1012.4 |
| 20260507013305 | 43 | 76 | 0.0 | 0.0 | 0.00 | 0.00 | 0.00 | 1 | 1012.5 |
| 20260507013106 | 43 | 76 | 0.0 | 0.0 | 0.00 | 0.00 | 0.00 | 1 | 1012.4 |
| 20260507012902 | 43 | 76 | 0.0 | 0.0 | 0.00 | 0.00 | 0.00 | 1 | 1012.4 |
| 20260507012702 | 43 | 76 | 0.0 | 0.0 | 0.00 | 0.00 | 0.00 | 1 | 1012.4 |
| 20260507012502 | 43 | 76 | 0.0 | 0.0 | 0.00 | 0.00 | 0.00 | 1 | 1012.4 |
| 20260507012306 | 43 | 76 | 0.0 | 0.0 | 0.00 | 0.00 | 0.00 | 1 | 1012.4 |
| 20260507012103 | 43 | 76 | 0.0 | 0.0 | 0.00 | 0.00 | 0.00 | 1 | 1012.4 |
| 20260507011902 | 43 | 76 | 0.0 | 0.0 | 0.00 | 0.00 | 0.00 | 1 | 1012.4 |
| 20260507011702 | 43 | 76 | 0.0 | 0.0 | 0.00 | 0.00 | 0.00 | 1 | 1012.4 |
| 20260507011503 | 43 | 76 | 0.0 | 0.0 | 0.00 | 0.00 | 0.00 | 1 | 1012.4 |
| 20260507011302 | 43 | 76 | 0.0 | 0.0 | 0.00 | 0.00 | 0.00 | 1 | 1012.4 |
| 20260507011102 | 43 | 76 | 0.0 | 0.0 | 0.00 | 0.00 | 0.00 | 1 | 1012.4 |
| 20260507010902 | 43 | 76 | 0.0 | 0.0 | 0.00 | 0.00 | 0.00 | 1 | 1012.5 |
| 20260507010702 | 43 | 76 | 0.0 | 0.0 | 0.00 | 0.00 | 0.00 | 1 | 1012.4 |
| 20260507010504 | 43 | 76 | 0.0 | 0.0 | 0.00 | 0.00 | 0.00 | 1 | 1012.5 |
| 20260507010302 | 43 | 76 | 0.0 | 0.0 | 0.00 | 0.00 | 0.00 | 1 | 1012.4 |
| 20260507005903 | 43 | 76 | 0.0 | 0.0 | 0.00 | 0.00 | 0.00 | 1 | 1012.4 |
| 20260507005702 | 43 | 76 | 0.0 | 0.0 | 0.00 | 0.00 | 0.00 | 1 | 1012.4 |
| 20260507005502 | 43 | 76 | 0.0 | 0.0 | 0.00 | 0.00 | 0.00 | 1 | 1012.4 |
| 20260507005305 | 43 | 76 | 0.0 | 0.0 | 0.00 | 0.00 | 0.00 | 1 | 1012.4 |
| 20260507005102 | 43 | 76 | 0.0 | 0.0 | 0.00 | 0.00 | 0.00 | 1 | 1012.4 |
| 20260507004903 | 43 | 76 | 0.0 | 0.0 | 0.00 | 0.00 | 0.00 | 1 | 1012.4 |
| 20260507004702 | 43 | 76 | 0.0 | 0.0 | 0.00 | 0.00 | 0.00 | 1 | 1012.3 |
| 20260507004502 | 43 | 76 | 0.0 | 0.0 | 0.00 | 0.00 | 0.00 | 1 | 1012.3 |
| 20260507004302 | 43 | 76 | 0.0 | 0.0 | 0.00 | 0.00 | 0.00 | 1 | 1012.4 |
| 20260507004102 | 43 | 76 | 0.0 | 0.0 | 0.00 | 0.00 | 0.00 | 1 | 1012.4 |
| 20260507003903 | 43 | 76 | 0.0 | 0.0 | 0.00 | 0.00 | 0.00 | 1 | 1012.4 |
| 20260507003703 | 43 | 76 | 0.0 | 0.0 | 0.00 | 0.00 | 0.00 | 1 | 1012.4 |
| 20260507003503 | 43 | 76 | 0.0 | 0.0 | 0.00 | 0.00 | 0.00 | 1 | 1012.4 |
| 20260507003302 | 43 | 76 | 0.0 | 0.0 | 0.00 | 0.00 | 0.00 | 1 | 1012.4 |
| 20260507003102 | 43 | 76 | 0.0 | 0.0 | 0.00 | 0.00 | 0.00 | 1 | 1012.4 |
| 20260507002901 | 43 | 76 | 0.0 | 0.0 | 0.00 | 0.00 | 0.00 | 1 | 1012.4 |
| 20260507002703 | 43 | 76 | 0.0 | 0.0 | 0.00 | 0.00 | 0.00 | 1 | 1012.4 |
| 20260507002504 | 43 | 76 | 0.0 | 0.0 | 0.00 | 0.00 | 0.00 | 1 | 1012.4 |
| 20260507002305 | 43 | 76 | 0.0 | 0.0 | 0.00 | 0.00 | 0.00 | 1 | 1012.3 |
| 20260507002103 | 43 | 76 | 0.0 | 0.0 | 0.00 | 0.00 | 0.00 | 1 | 1012.4 |
| 20260507001904 | 43 | 76 | 0.0 | 0.0 | 0.00 | 0.00 | 0.00 | 1 | 1012.4 |
| 20260507001704 | 43 | 76 | 0.0 | 0.0 | 0.00 | 0.00 | 0.00 | 1 | 1012.4 |
| 20260507001504 | 43 | 76 | 0.0 | 0.0 | 0.00 | 0.00 | 0.00 | 1 | 1012.4 |
| 20260507001303 | 43 | 76 | 0.0 | 0.0 | 0.00 | 0.00 | 0.00 | 1 | 1012.4 |
| 20260507001104 | 43 | 76 | 0.0 | 0.0 | 0.00 | 0.00 | 0.00 | 1 | 1012.3 |
| 20260507000903 | 43 | 76 | 0.0 | 0.0 | 0.00 | 0.00 | 0.00 | 1 | 1012.4 |
| 20260507000703 | 43 | 76 | 0.0 | 0.0 | 0.00 | 0.00 | 0.00 | 1 | 1012.4 |
| 20260507000503 | 43 | 76 | 0.0 | 0.0 | 0.00 | 0.00 | 0.00 | 1 | 1012.4 |
| 20260507000306 | 43 | 76 | 0.0 | 0.0 | 0.00 | 0.00 | 0.00 | 1 | 1012.4 |
| 20260506235905 | 43 | 76 | 0.0 | 0.0 | 0.00 | 0.00 | 0.00 | 1 | 1012.5 |
| 20260506235704 | 43 | 76 | 0.0 | 0.0 | 0.00 | 0.00 | 0.00 | 1 | 1012.5 |
| 20260506235505 | 43 | 76 | 0.0 | 0.0 | 0.00 | 0.00 | 0.00 | 1 | 1012.5 |
| 20260506235306 | 43 | 76 | 0.0 | 0.0 | 0.00 | 0.00 | 0.00 | 1 | 1012.5 |
| 20260506235104 | 43 | 76 | 0.0 | 0.0 | 0.00 | 0.00 | 0.00 | 1 | 1012.4 |
| 20260506234904 | 43 | 76 | 0.0 | 0.0 | 0.00 | 0.00 | 0.00 | 1 | 1012.5 |
| 20260506234704 | 43 | 76 | 0.0 | 0.0 | 0.00 | 0.00 | 0.00 | 1 | 1012.5 |
| 20260506234504 | 43 | 76 | 0.0 | 0.0 | 0.00 | 0.00 | 0.00 | 1 | 1012.5 |
| 20260506234304 | 44 | 76 | 0.0 | 0.0 | 0.00 | 0.00 | 0.00 | 1 | 1012.5 |
| 20260506234104 | 44 | 76 | 0.0 | 0.0 | 0.00 | 0.00 | 0.00 | 1 | 1012.5 |
| 20260506233904 | 44 | 76 | 0.0 | 0.0 | 0.00 | 0.00 | 0.00 | 1 | 1012.5 |
| 20260506233705 | 44 | 76 | 0.0 | 0.0 | 0.00 | 0.00 | 0.00 | 1 | 1012.5 |
| 20260506233504 | 44 | 76 | 0.0 | 0.0 | 0.00 | 0.00 | 0.00 | 1 | 1012.4 |
| 20260506233304 | 44 | 76 | 0.0 | 0.0 | 0.00 | 0.00 | 0.00 | 1 | 1012.4 |
| 20260506233103 | 44 | 76 | 0.0 | 0.0 | 0.00 | 0.00 | 0.00 | 1 | 1012.4 |
| 20260506232905 | 44 | 76 | 0.0 | 0.0 | 0.00 | 0.00 | 0.00 | 1 | 1012.4 |
| 20260506232703 | 44 | 76 | 0.0 | 0.0 | 0.00 | 0.00 | 0.00 | 1 | 1012.5 |
| 20260506232505 | 44 | 0 | 0.0 | 0.0 | 0.00 | 0.00 | 0.00 | 1 | 1012.4 |
| 20260506232306 | 44 | 0 | 0.0 | 0.0 | 0.00 | 0.00 | 0.00 | 1 | 1012.4 |
| 20260506232104 | 44 | 76 | 0.0 | 0.0 | 0.00 | 0.00 | 0.00 | 1 | 1012.4 |
| 20260506231904 | 44 | 76 | 0.0 | 0.0 | 0.00 | 0.00 | 0.00 | 1 | 1012.4 |
| 20260506231703 | 44 | 0 | 0.0 | 0.0 | 0.00 | 0.00 | 0.00 | 1 | 1012.4 |
| 20260506231504 | 44 | 0 | 0.0 | 0.0 | 0.00 | 0.00 | 0.00 | 1 | 1012.4 |
| 20260506231303 | 44 | 76 | 0.0 | 0.0 | 0.00 | 0.00 | 0.00 | 1 | 1012.4 |
| 20260506230903 | 44 | 76 | 0.0 | 0.0 | 0.00 | 0.00 | 0.00 | 1 | 1012.4 |
| 20260506230710 | 44 | 0 | 0.0 | 0.0 | 0.00 | 0.00 | 0.00 | 1 | 1012.4 |
| 20260506230504 | 44 | 0 | 0.0 | 0.0 | 0.00 | 0.00 | 0.00 | 1 | 1012.3 |
| 20260506230253 | 44 | 0 | 0.0 | 0.0 | 0.00 | 0.00 | 0.00 | 1 | 1012.2 |
| 20260506230050 | 44 | 0 | 0.0 | 0.0 | 0.00 | 0.00 | 0.00 | 1 | 1012.3 |
| 20260506225849 | 44 | 0 | 0.0 | 0.0 | 0.00 | 0.00 | 0.00 | 1 | 1012.3 |
| 20260506225649 | 44 | 0 | 0.0 | 0.0 | 0.00 | 0.00 | 0.00 | 1 | 1012.2 |
| 20260506225450 | 44 | 76 | 0.0 | 0.0 | 0.00 | 0.00 | 0.00 | 1 | 1012.3 |
| 20260506225248 | 44 | 0 | 0.0 | 0.0 | 0.00 | 0.00 | 0.00 | 1 | 1012.3 |
| 20260506225048 | 44 | 79 | 0.0 | 0.0 | 0.00 | 0.00 | 0.00 | 1 | 1012.3 |
| 20260506224849 | 44 | 76 | 0.0 | 0.0 | 0.00 | 0.00 | 0.00 | 1 | 1012.2 |
| 20260506224648 | 44 | 0 | 0.0 | 0.0 | 0.00 | 0.00 | 0.00 | 1 | 1012.3 |
| 20260506224450 | 44 | 76 | 0.0 | 0.0 | 0.00 | 0.00 | 0.00 | 1 | 1012.3 |
| 20260506224248 | 44 | 0 | 0.0 | 0.0 | 0.00 | 0.00 | 0.00 | 1 | 1012.3 |
| 20260506224049 | 44 | 79 | 0.0 | 0.0 | 0.00 | 0.00 | 0.00 | 1 | 1012.3 |
| 20260506223849 | 44 | 0 | 0.0 | 0.0 | 0.00 | 0.00 | 0.00 | 1 | 1012.3 |
| 20260506223648 | 44 | 76 | 0.0 | 0.0 | 0.00 | 0.00 | 0.00 | 1 | 1012.3 |
| 20260506223449 | 44 | 76 | 0.0 | 0.0 | 0.00 | 0.00 | 0.00 | 1 | 1012.2 |
| 20260506223248 | 44 | 76 | 0.0 | 0.0 | 0.00 | 0.00 | 0.00 | 1 | 1012.2 |
| 20260506223048 | 44 | 76 | 0.0 | 0.0 | 0.00 | 0.00 | 0.00 | 1 | 1012.2 |
| 20260506222848 | 44 | 76 | 0.0 | 0.0 | 0.00 | 0.00 | 0.00 | 1 | 1012.3 |
| 20260506222648 | 44 | 76 | 0.0 | 0.0 | 0.00 | 0.00 | 0.00 | 1 | 1012.3 |
| 20260506222447 | 44 | 73 | 0.0 | 0.0 | 0.00 | 0.00 | 0.00 | 1 | 1012.2 |
| 20260506222248 | 44 | 73 | 0.0 | 0.0 | 0.00 | 0.00 | 0.00 | 1 | 1012.2 |
| 20260506222044 | 45 | 73 | 0.0 | 0.0 | 0.00 | 0.00 | 0.00 | 1 | 1012.3 |
| 20260506221839 | 44 | 73 | 0.0 | 0.0 | 0.00 | 0.00 | 0.00 | 1 | 1012.2 |
| 20260506221636 | 45 | 73 | 0.0 | 0.0 | 0.00 | 0.00 | 0.00 | 1 | 1012.2 |
| 20260506221434 | 45 | 73 | 0.0 | 0.0 | 0.00 | 0.00 | 0.00 | 1 | 1012.2 |
| 20260506221232 | 45 | 73 | 0.0 | 0.0 | 0.00 | 0.00 | 0.00 | 1 | 1012.2 |
| 20260506221030 | 45 | 73 | 0.0 | 0.0 | 0.00 | 0.00 | 0.00 | 1 | 1012.1 |
| 20260506220831 | 45 | 59 | 0.0 | 0.0 | 0.00 | 0.00 | 0.00 | 1 | 1012.1 |
| 20260506220633 | 45 | 65 | 0.0 | 0.0 | 0.00 | 0.00 | 0.00 | 1 | 1012.1 |
| 20260506220410 | 45 | 62 | 0.0 | 0.0 | 0.00 | 0.00 | 0.00 | 1 | 1012.1 |
| 20260506220207 | 45 | 54 | 0.0 | 0.0 | 0.00 | 0.00 | 0.00 | 1 | 1012.2 |
| 20260506220018 | 45 | 0 | 0.0 | 0.0 | 0.00 | 0.00 | 0.00 | 1 | 1012.2 |
| 20260506215805 | 45 | 79 | 0.0 | 0.0 | 0.00 | 0.00 | 0.00 | 1 | 1012.1 |
| 20260506215605 | 45 | 79 | 0.0 | 0.0 | 0.00 | 0.00 | 0.00 | 1 | 1012.2 |
| 20260506215405 | 45 | 79 | 0.0 | 0.0 | 0.00 | 0.00 | 0.00 | 1 | 1012.2 |
| 20260506215206 | 45 | 62 | 0.0 | 0.0 | 0.00 | 0.00 | 0.00 | 1 | 1012.2 |
| 20260506215007 | 45 | 62 | 0.0 | 0.0 | 0.00 | 0.00 | 0.00 | 1 | 1012.2 |
| 20260506214805 | 45 | 69 | 0.0 | 0.0 | 0.00 | 0.00 | 0.00 | 1 | 1012.1 |
| 20260506214605 | 45 | 0 | 0.0 | 0.0 | 0.00 | 0.00 | 0.00 | 1 | 1012.1 |
| 20260506214405 | 45 | 78 | 0.0 | 0.0 | 0.00 | 0.00 | 0.00 | 1 | 1012.0 |
| 20260506214207 | 45 | 66 | 0.0 | 0.0 | 0.00 | 0.00 | 0.00 | 1 | 1012.1 |
| 20260506214006 | 45 | 0 | 0.0 | 0.0 | 0.00 | 0.00 | 0.00 | 1 | 1012.0 |
| 20260506213606 | 45 | 78 | 0.0 | 0.0 | 0.00 | 0.00 | 0.00 | 1 | 1012.0 |
| 20260506213406 | 45 | 73 | 0.0 | 0.0 | 0.00 | 0.00 | 0.00 | 1 | 1012.1 |
| 20260506213205 | 45 | 69 | 0.0 | 0.0 | 0.00 | 0.00 | 0.00 | 1 | 1012.1 |
| 20260506213008 | 45 | 69 | 0.0 | 0.0 | 0.00 | 0.00 | 0.00 | 1 | 1012.1 |
| 20260506212805 | 45 | 80 | 0.0 | 0.0 | 0.00 | 0.00 | 0.00 | 1 | 1012.1 |
| 20260506212605 | 45 | 73 | 0.0 | 0.0 | 0.00 | 0.00 | 0.00 | 1 | 1012.0 |
| 20260506212406 | 45 | 72 | 0.0 | 0.0 | 0.00 | 0.00 | 0.00 | 1 | 1012.0 |
| 20260506212205 | 45 | 62 | 0.0 | 0.0 | 0.00 | 0.00 | 0.00 | 1 | 1012.0 |
| 20260506212007 | 45 | 0 | 0.0 | 0.0 | 0.00 | 0.00 | 0.00 | 1 | 1012.0 |
| 20260506211806 | 45 | 0 | 0.0 | 0.0 | 0.00 | 0.00 | 0.00 | 2 | 1012.0 |
| 20260506211605 | 45 | 75 | 0.0 | 0.0 | 0.00 | 0.00 | 0.00 | 3 | 1012.0 |
| 20260506211405 | 45 | 75 | 0.0 | 0.0 | 0.00 | 0.00 | 0.00 | 4 | 1012.0 |
| 20260506211205 | 46 | 0 | 0.0 | 0.0 | 0.00 | 0.00 | 0.00 | 6 | 1012.0 |
| 20260506211005 | 46 | 0 | 0.0 | 0.0 | 0.00 | 0.00 | 0.00 | 6 | 1011.9 |
| 20260506210805 | 46 | 0 | 0.0 | 0.0 | 0.00 | 0.00 | 0.00 | 7 | 1012.0 |
| 20260506210605 | 46 | 82 | 0.0 | 0.0 | 0.00 | 0.00 | 0.00 | 8 | 1011.8 |
| 20260506210406 | 46 | 0 | 0.0 | 0.0 | 0.00 | 0.00 | 0.00 | 8 | 1011.9 |
| 20260506210205 | 46 | 0 | 0.0 | 0.0 | 0.00 | 0.00 | 0.00 | 8 | 1011.8 |
| 20260506210007 | 46 | 0 | 0.0 | 0.0 | 0.00 | 0.00 | 0.00 | 9 | 1011.9 |
| 20260506205807 | 46 | 0 | 0.0 | 0.0 | 0.00 | 0.00 | 0.00 | 8 | 1011.9 |
| 20260506205605 | 46 | 0 | 0.0 | 0.0 | 0.00 | 0.00 | 0.00 | 8 | 1011.9 |
| 20260506205406 | 46 | 0 | 0.0 | 0.0 | 0.00 | 0.00 | 0.00 | 8 | 1011.8 |
| 20260506205206 | 47 | 0 | 0.0 | 0.0 | 0.00 | 0.00 | 0.00 | 7 | 1011.9 |
| 20260506205007 | 47 | 80 | 0.0 | 0.0 | 0.00 | 0.00 | 0.00 | 7 | 1011.9 |
| 20260506204802 | 47 | 0 | 0.0 | 0.0 | 0.00 | 0.00 | 0.00 | 7 | 1011.9 |
| 20260506204606 | 47 | 78 | 0.0 | 0.0 | 0.00 | 0.00 | 0.00 | 7 | 1011.9 |
| 20260506204403 | 47 | 75 | 0.0 | 0.0 | 0.00 | 0.00 | 0.00 | 8 | 1011.8 |
| 20260506204206 | 47 | 63 | 0.0 | 0.0 | 0.00 | 0.00 | 0.00 | 8 | 1011.8 |
| 20260506204005 | 47 | 0 | 0.0 | 0.0 | 0.00 | 0.00 | 0.00 | 8 | 1011.7 |
| 20260506203805 | 47 | 76 | 0.0 | 0.0 | 0.00 | 0.00 | 0.00 | 9 | 1011.7 |
| 20260506203606 | 47 | 0 | 0.0 | 0.0 | 0.00 | 0.00 | 0.00 | 9 | 1011.7 |
| 20260506203405 | 47 | 76 | 0.0 | 0.0 | 0.00 | 0.00 | 0.00 | 9 | 1011.7 |
| 20260506203205 | 47 | 63 | 0.0 | 2.6 | 0.00 | 0.00 | 0.00 | 10 | 1011.6 |
| 20260506203006 | 47 | 68 | 0.0 | 2.6 | 0.00 | 0.00 | 0.00 | 10 | 1011.6 |
| 20260506202806 | 47 | 107 | 0.0 | 2.6 | 0.00 | 0.00 | 0.00 | 10 | 1011.7 |
| 20260506202607 | 47 | 73 | 0.0 | 2.6 | 0.00 | 0.00 | 0.00 | 10 | 1011.7 |
| 20260506202406 | 47 | 62 | 0.0 | 2.6 | 0.00 | 0.00 | 0.00 | 10 | 1011.6 |
| 20260506202205 | 47 | 55 | 0.0 | 0.0 | 0.00 | 0.00 | 0.00 | 11 | 1011.6 |
| 20260506202007 | 47 | 68 | 0.0 | 0.0 | 0.00 | 0.00 | 0.00 | 11 | 1011.6 |
| 20260506201806 | 47 | 44 | 0.0 | 0.0 | 0.00 | 0.00 | 0.00 | 11 | 1011.6 |
| 20260506201605 | 48 | 66 | 0.0 | 0.0 | 0.00 | 0.00 | 0.00 | 11 | 1011.6 |
| 20260506201405 | 48 | 0 | 0.0 | 0.0 | 0.00 | 0.00 | 0.00 | 11 | 1011.7 |
| 20260506201205 | 48 | 0 | 0.0 | 0.0 | 0.00 | 0.00 | 0.00 | 11 | 1011.7 |
| 20260506201005 | 48 | 69 | 0.0 | 0.0 | 0.00 | 0.00 | 0.00 | 11 | 1011.7 |
| 20260506200805 | 48 | 76 | 0.0 | 0.0 | 0.00 | 0.00 | 0.00 | 11 | 1011.7 |
| 20260506200606 | 48 | 66 | 0.0 | 0.0 | 0.00 | 0.00 | 0.00 | 12 | 1011.7 |
| 20260506200405 | 48 | 66 | 0.0 | 0.0 | 0.00 | 0.00 | 0.00 | 12 | 1011.6 |
| 20260506200204 | 48 | 80 | 0.0 | 0.0 | 0.00 | 0.00 | 0.00 | 12 | 1011.6 |
| 20260506200007 | 48 | 47 | 0.0 | 0.0 | 0.00 | 0.00 | 0.00 | 12 | 1011.5 |
| 20260506195806 | 48 | 54 | 0.0 | 0.0 | 0.00 | 0.00 | 0.00 | 13 | 1011.5 |
| 20260506195606 | 48 | 38 | 0.0 | 2.6 | 0.00 | 0.00 | 0.00 | 14 | 1011.5 |
| 20260506195406 | 48 | 72 | 0.0 | 2.6 | 0.00 | 0.00 | 0.00 | 15 | 1011.5 |
| 20260506195206 | 48 | 68 | 0.0 | 2.6 | 0.00 | 0.00 | 0.00 | 15 | 1011.5 |
| 20260506195007 | 48 | 0 | 0.0 | 2.6 | 0.00 | 0.00 | 0.00 | 15 | 1011.5 |
| 20260506194805 | 48 | 69 | 0.0 | 2.6 | 0.00 | 0.00 | 0.00 | 16 | 1011.5 |
| 20260506194606 | 49 | 72 | 0.0 | 0.0 | 0.00 | 0.00 | 0.00 | 16 | 1011.5 |
| 20260506194405 | 49 | 63 | 0.0 | 0.9 | 0.00 | 0.00 | 0.00 | 17 | 1011.4 |
| 20260506194206 | 49 | 0 | 0.0 | 0.9 | 0.00 | 0.00 | 0.00 | 17 | 1011.4 |
| 20260506194005 | 49 | 0 | 0.0 | 0.9 | 0.00 | 0.00 | 0.00 | 18 | 1011.4 |
| 20260506193805 | 49 | 78 | 0.0 | 0.9 | 0.00 | 0.00 | 0.00 | 18 | 1011.3 |
| 20260506193605 | 49 | 65 | 0.0 | 0.9 | 0.00 | 0.00 | 0.00 | 18 | 1011.3 |
| 20260506193405 | 49 | 63 | 0.0 | 0.0 | 0.00 | 0.00 | 0.00 | 18 | 1011.3 |
| 20260506193205 | 49 | 62 | 0.0 | 0.9 | 0.00 | 0.00 | 0.00 | 19 | 1011.3 |
| 20260506193008 | 49 | 0 | 0.0 | 0.9 | 0.00 | 0.00 | 0.00 | 19 | 1011.2 |
| 20260506192805 | 49 | 66 | 0.0 | 0.9 | 0.00 | 0.00 | 0.00 | 21 | 1011.2 |
| 20260506192605 | 49 | 0 | 0.0 | 0.9 | 0.00 | 0.00 | 0.00 | 22 | 1011.3 |
| 20260506192403 | 49 | 58 | 0.0 | 0.9 | 0.00 | 0.00 | 0.00 | 22 | 1011.2 |
| 20260506192202 | 50 | 0 | 0.0 | 0.9 | 0.00 | 0.00 | 0.00 | 23 | 1011.2 |
| 20260506192002 | 50 | 66 | 0.0 | 4.3 | 0.00 | 0.00 | 0.00 | 23 | 1011.1 |
| 20260506191803 | 50 | 58 | 0.0 | 4.3 | 0.00 | 0.00 | 0.00 | 24 | 1011.1 |
| 20260506191603 | 50 | 0 | 0.0 | 4.3 | 0.00 | 0.00 | 0.00 | 25 | 1011.0 |
| 20260506191403 | 50 | 0 | 0.0 | 4.3 | 0.00 | 0.00 | 0.00 | 28 | 1011.0 |
| 20260506191202 | 50 | 42 | 0.9 | 4.3 | 0.00 | 0.00 | 0.00 | 28 | 1011.0 |
| 20260506191003 | 50 | 0 | 0.0 | 0.9 | 0.00 | 0.00 | 0.00 | 28 | 1011.0 |
| 20260506190802 | 50 | 68 | 0.0 | 0.9 | 0.00 | 0.00 | 0.00 | 30 | 1011.0 |
| 20260506190602 | 50 | 49 | 0.0 | 1.7 | 0.00 | 0.00 | 0.00 | 32 | 1010.9 |
| 20260506190402 | 50 | 0 | 0.0 | 1.7 | 0.00 | 0.00 | 0.00 | 32 | 1010.9 |
| 20260506190203 | 50 | 63 | 0.0 | 1.7 | 0.00 | 0.00 | 0.00 | 32 | 1010.9 |
| 20260506190005 | 50 | 32 | 0.0 | 1.7 | 0.00 | 0.00 | 0.00 | 32 | 1010.8 |
| 20260506185803 | 51 | 54 | 0.0 | 1.7 | 0.00 | 0.00 | 0.00 | 34 | 1010.8 |
| 20260506185603 | 51 | 49 | 0.0 | 6.1 | 0.00 | 0.00 | 0.00 | 38 | 1010.8 |
| 20260506185403 | 51 | 66 | 0.0 | 6.1 | 0.00 | 0.00 | 0.00 | 38 | 1010.8 |
| 20260506185202 | 51 | 72 | 0.0 | 6.1 | 0.00 | 0.00 | 0.00 | 38 | 1010.8 |
| 20260506185002 | 51 | 73 | 0.0 | 8.7 | 0.00 | 0.00 | 0.00 | 40 | 1010.8 |
| 20260506184801 | 51 | 79 | 1.7 | 8.7 | 0.00 | 0.00 | 0.00 | 42 | 1010.8 |
| 20260506184602 | 51 | 71 | 0.9 | 8.7 | 0.00 | 0.00 | 0.00 | 43 | 1010.8 |
| 20260506184402 | 51 | 62 | 0.9 | 8.7 | 0.00 | 0.00 | 0.00 | 44 | 1010.7 |
| 20260506184203 | 51 | 55 | 2.6 | 8.7 | 0.00 | 0.00 | 0.00 | 45 | 1010.7 |
| 20260506184001 | 51 | 71 | 0.0 | 3.5 | 0.00 | 0.00 | 0.00 | 45 | 1010.8 |
| 20260506183802 | 51 | 37 | 0.9 | 3.5 | 0.00 | 0.00 | 0.00 | 46 | 1010.8 |
| 20260506183601 | 51 | 0 | 0.9 | 7.8 | 0.00 | 0.00 | 0.00 | 47 | 1010.8 |
| 20260506183402 | 51 | 56 | 0.9 | 7.8 | 0.00 | 0.00 | 0.00 | 48 | 1010.6 |
| 20260506183202 | 51 | 75 | 0.0 | 7.8 | 0.00 | 0.00 | 0.00 | 48 | 1010.7 |
| 20260506183005 | 52 | 71 | 0.0 | 7.8 | 0.00 | 0.00 | 0.00 | 50 | 1010.7 |
| 20260506182803 | 52 | 65 | 2.6 | 7.8 | 0.00 | 0.00 | 0.00 | 51 | 1010.6 |
| 20260506182602 | 52 | 30 | 2.6 | 7.8 | 0.00 | 0.00 | 0.00 | 52 | 1010.6 |
| 20260506182402 | 52 | 75 | 2.6 | 6.1 | 0.00 | 0.00 | 0.00 | 53 | 1010.6 |
| 20260506182203 | 52 | 37 | 1.7 | 6.1 | 0.00 | 0.00 | 0.00 | 55 | 1010.6 |
| 20260506182006 | 52 | 56 | 1.7 | 11.3 | 0.00 | 0.00 | 0.00 | 55 | 1010.6 |
| 20260506181806 | 52 | 66 | 1.7 | 11.3 | 0.00 | 0.00 | 0.00 | 58 | 1010.6 |
| 20260506181605 | 52 | 71 | 1.7 | 11.3 | 0.00 | 0.00 | 0.00 | 58 | 1010.5 |
| 20260506181407 | 53 | 71 | 5.2 | 11.3 | 0.00 | 0.00 | 0.00 | 58 | 1010.4 |
| 20260506181206 | 53 | 85 | 7.0 | 11.3 | 0.00 | 0.00 | 0.00 | 59 | 1010.5 |
| 20260506181007 | 53 | 63 | 0.9 | 8.7 | 0.00 | 0.00 | 0.00 | 60 | 1010.5 |
| 20260506180805 | 53 | 62 | 0.9 | 8.7 | 0.00 | 0.00 | 0.00 | 61 | 1010.4 |
| 20260506180602 | 53 | 72 | 1.7 | 8.7 | 0.00 | 0.00 | 0.00 | 61 | 1010.3 |
| 20260506180405 | 53 | 54 | 3.5 | 8.7 | 0.00 | 0.00 | 0.00 | 61 | 1010.3 |
| 20260506180206 | 53 | 35 | 4.3 | 7.8 | 0.00 | 0.00 | 0.00 | 61 | 1010.3 |
| 20260506180007 | 53 | 54 | 1.7 | 7.8 | 0.00 | 0.00 | 0.00 | 62 | 1010.4 |
| 20260506175806 | 53 | 68 | 0.9 | 4.3 | 0.00 | 0.00 | 0.00 | 62 | 1010.4 |
| 20260506175606 | 53 | 0 | 0.9 | 9.6 | 0.00 | 0.00 | 0.00 | 62 | 1010.3 |
| 20260506175405 | 53 | 0 | 0.9 | 9.6 | 0.00 | 0.00 | 0.00 | 62 | 1010.2 |
| 20260506175204 | 54 | 0 | 1.7 | 11.3 | 0.00 | 0.00 | 0.00 | 62 | 1010.2 |
| 20260506175006 | 54 | 62 | 0.9 | 11.3 | 0.00 | 0.00 | 0.00 | 63 | 1010.2 |
| 20260506174805 | 54 | 72 | 2.6 | 11.3 | 0.00 | 0.00 | 0.00 | 63 | 1010.1 |
| 20260506174605 | 54 | 39 | 0.9 | 11.3 | 0.00 | 0.00 | 0.00 | 63 | 1010.1 |
| 20260506174405 | 54 | 76 | 5.2 | 11.3 | 0.00 | 0.00 | 0.00 | 63 | 1010.1 |
| 20260506174206 | 54 | 73 | 1.7 | 7.8 | 0.00 | 0.00 | 0.00 | 63 | 1010.1 |
| 20260506174006 | 54 | 58 | 2.6 | 9.6 | 0.00 | 0.00 | 0.00 | 63 | 1010.0 |
| 20260506173810 | 54 | 58 | 1.7 | 9.6 | 0.00 | 0.00 | 0.00 | 63 | 1010.0 |
| 20260506173606 | 54 | 58 | 0.9 | 9.6 | 0.00 | 0.00 | 0.00 | 63 | 1010.0 |
| 20260506173404 | 54 | 0 | 0.0 | 9.6 | 0.00 | 0.00 | 0.00 | 63 | 1010.0 |
| 20260506173205 | 54 | 59 | 3.5 | 9.6 | 0.00 | 0.00 | 0.00 | 63 | 1010.0 |
| 20260506173008 | 55 | 79 | 4.3 | 7.8 | 0.00 | 0.00 | 0.00 | 63 | 1010.0 |
| 20260506172806 | 55 | 55 | 2.6 | 9.6 | 0.00 | 0.00 | 0.00 | 63 | 1009.9 |
| 20260506172605 | 55 | 72 | 1.7 | 9.6 | 0.00 | 0.00 | 0.00 | 63 | 1009.9 |
| 20260506172404 | 55 | 0 | 2.6 | 9.6 | 0.00 | 0.00 | 0.00 | 63 | 1009.9 |
| 20260506172207 | 55 | 75 | 2.6 | 9.6 | 0.00 | 0.00 | 0.00 | 63 | 1009.9 |
| 20260506172006 | 55 | 0 | 5.2 | 9.6 | 0.00 | 0.00 | 0.00 | 63 | 1009.9 |
| 20260506171804 | 55 | 0 | 3.5 | 9.6 | 0.00 | 0.00 | 0.00 | 63 | 1009.8 |
| 20260506171605 | 55 | 76 | 5.2 | 10.4 | 0.00 | 0.00 | 0.00 | 63 | 1009.8 |
| 20260506171405 | 55 | 0 | 3.5 | 10.4 | 0.00 | 0.00 | 0.00 | 63 | 1009.9 |
| 20260506171206 | 55 | 54 | 2.6 | 10.4 | 0.00 | 0.00 | 0.00 | 63 | 1009.9 |
| 20260506171006 | 55 | 0 | 0.9 | 10.4 | 0.00 | 0.00 | 0.00 | 63 | 1009.9 |
| 20260506170805 | 55 | 0 | 3.5 | 10.4 | 0.00 | 0.00 | 0.00 | 63 | 1009.8 |
| 20260506170605 | 55 | 66 | 0.9 | 10.4 | 0.00 | 0.00 | 0.00 | 63 | 1009.8 |
| 20260506170405 | 55 | 0 | 2.6 | 10.4 | 0.00 | 0.00 | 0.00 | 63 | 1009.8 |
| 20260506170205 | 55 | 0 | 3.5 | 10.4 | 0.00 | 0.00 | 0.00 | 63 | 1009.8 |
| 20260506170006 | 55 | 0 | 1.7 | 10.4 | 0.00 | 0.00 | 0.00 | 63 | 1009.7 |
| 20260506165805 | 55 | 82 | 3.5 | 13.0 | 0.00 | 0.00 | 0.00 | 63 | 1009.7 |
| 20260506165606 | 55 | 0 | 2.6 | 13.0 | 0.00 | 0.00 | 0.00 | 63 | 1009.7 |
| 20260506165405 | 55 | 63 | 2.6 | 13.0 | 0.00 | 0.00 | 0.00 | 63 | 1009.7 |
| 20260506165205 | 55 | 0 | 6.1 | 13.0 | 0.00 | 0.00 | 0.00 | 63 | 1009.6 |
| 20260506165006 | 55 | 0 | 9.6 | 13.0 | 0.00 | 0.00 | 0.00 | 63 | 1009.6 |
| 20260506164806 | 55 | 65 | 7.0 | 10.4 | 0.00 | 0.00 | 0.00 | 63 | 1009.7 |
| 20260506164604 | 55 | 55 | 5.2 | 10.4 | 0.00 | 0.00 | 0.00 | 62 | 1009.7 |
| 20260506164404 | 55 | 71 | 5.2 | 10.4 | 0.00 | 0.00 | 0.00 | 62 | 1009.6 |
| 20260506164206 | 56 | 0 | 2.6 | 10.4 | 0.00 | 0.00 | 0.00 | 62 | 1009.8 |
| 20260506164005 | 56 | 0 | 4.3 | 10.4 | 0.00 | 0.00 | 0.00 | 62 | 1009.7 |
| 20260506163805 | 56 | 62 | 6.1 | 11.3 | 0.00 | 0.00 | 0.00 | 62 | 1009.6 |
| 20260506163605 | 56 | 42 | 6.1 | 13.9 | 0.00 | 0.00 | 0.00 | 62 | 1009.7 |
| 20260506163405 | 56 | 63 | 5.2 | 13.9 | 0.00 | 0.00 | 0.00 | 62 | 1009.7 |
| 20260506163206 | 56 | 0 | 4.3 | 13.9 | 0.00 | 0.00 | 0.00 | 61 | 1009.7 |
| 20260506163007 | 56 | 114 | 6.1 | 13.9 | 0.00 | 0.00 | 0.00 | 62 | 1009.6 |
| 20260506162805 | 56 | 61 | 7.8 | 13.9 | 0.00 | 0.00 | 0.00 | 62 | 1009.6 |
| 20260506162605 | 56 | 68 | 4.3 | 11.3 | 0.00 | 0.00 | 0.00 | 62 | 1009.6 |
| 20260506162406 | 56 | 65 | 6.1 | 11.3 | 0.00 | 0.00 | 0.00 | 62 | 1009.7 |
| 20260506162205 | 56 | 0 | 5.2 | 11.3 | 0.00 | 0.00 | 0.00 | 62 | 1009.7 |
| 20260506162006 | 56 | 72 | 6.1 | 13.9 | 0.00 | 0.00 | 0.00 | 62 | 1009.7 |
| 20260506161805 | 56 | 0 | 7.8 | 13.9 | 0.00 | 0.00 | 0.00 | 62 | 1009.7 |
| 20260506161606 | 56 | 71 | 7.0 | 13.9 | 0.00 | 0.00 | 0.00 | 61 | 1009.6 |
| 20260506161406 | 56 | 0 | 6.1 | 13.9 | 0.00 | 0.00 | 0.00 | 62 | 1009.7 |
| 20260506161201 | 56 | 58 | 8.7 | 13.9 | 0.00 | 0.00 | 0.00 | 62 | 1009.7 |
| 20260506161007 | 56 | 68 | 7.8 | 13.9 | 0.00 | 0.00 | 0.00 | 62 | 1009.7 |
| 20260506160806 | 56 | 99 | 6.1 | 13.9 | 0.00 | 0.00 | 0.00 | 62 | 1009.6 |
| 20260506160605 | 56 | 0 | 3.5 | 11.3 | 0.00 | 0.00 | 0.00 | 62 | 1009.6 |
| 20260506160405 | 56 | 0 | 5.2 | 11.3 | 0.00 | 0.00 | 0.00 | 62 | 1009.6 |
| 20260506160205 | 56 | 0 | 6.1 | 11.3 | 0.00 | 0.00 | 0.00 | 62 | 1009.6 |
| 20260506160007 | 56 | 69 | 7.0 | 12.2 | 0.00 | 0.00 | 0.00 | 62 | 1009.6 |
| 20260506155806 | 57 | 0 | 4.3 | 13.0 | 0.00 | 0.00 | 0.00 | 62 | 1009.6 |
| 20260506155604 | 57 | 0 | 4.3 | 13.0 | 0.00 | 0.00 | 0.00 | 62 | 1009.6 |
| 20260506155405 | 57 | 79 | 7.0 | 13.0 | 0.00 | 0.00 | 0.00 | 62 | 1009.7 |
| 20260506155205 | 57 | 0 | 10.4 | 13.0 | 0.00 | 0.00 | 0.00 | 62 | 1009.6 |
| 20260506155006 | 57 | 0 | 8.7 | 13.0 | 0.00 | 0.00 | 0.00 | 62 | 1009.7 |
| 20260506154805 | 57 | 66 | 7.0 | 13.9 | 0.00 | 0.00 | 0.00 | 62 | 1009.7 |
| 20260506154606 | 56 | 76 | 4.3 | 13.9 | 0.00 | 0.00 | 0.00 | 62 | 1009.7 |
| 20260506154406 | 56 | 68 | 6.1 | 13.9 | 0.00 | 0.00 | 0.00 | 62 | 1009.6 |
| 20260506154206 | 56 | 114 | 7.0 | 13.9 | 0.00 | 0.00 | 0.00 | 62 | 1009.6 |
| 20260506154006 | 56 | 68 | 9.6 | 13.9 | 0.00 | 0.00 | 0.00 | 63 | 1009.6 |
| 20260506153805 | 56 | 72 | 7.8 | 13.9 | 0.00 | 0.00 | 0.00 | 63 | 1009.6 |
| 20260506153539 | 56 | 62 | 7.0 | 13.9 | 0.00 | 0.00 | 0.00 | 62 | 1009.6 |
| 20260506153337 | 56 | 79 | 5.2 | 12.2 | 0.00 | 0.00 | 0.00 | 62 | 1009.6 |
| 20260506153138 | 56 | 0 | 6.1 | 12.2 | 0.00 | 0.00 | 0.00 | 62 | 1009.6 |
| 20260506152937 | 56 | 107 | 5.2 | 13.9 | 0.00 | 0.00 | 0.00 | 63 | 1009.6 |
| 20260506152738 | 57 | 59 | 4.3 | 13.9 | 0.00 | 0.00 | 0.00 | 62 | 1009.6 |
| 20260506152539 | 57 | 0 | 5.2 | 13.9 | 0.00 | 0.00 | 0.00 | 62 | 1009.5 |
| 20260506152337 | 57 | 65 | 8.7 | 13.9 | 0.00 | 0.00 | 0.00 | 61 | 1009.6 |
| 20260506152137 | 57 | 0 | 10.4 | 13.9 | 0.00 | 0.00 | 0.00 | 62 | 1009.6 |
| 20260506151937 | 57 | 106 | 3.5 | 12.2 | 0.00 | 0.00 | 0.00 | 61 | 1009.5 |
| 20260506151737 | 58 | 68 | 2.6 | 12.2 | 0.00 | 0.00 | 0.00 | 62 | 1009.6 |
| 20260506151539 | 58 | 56 | 2.6 | 13.0 | 0.00 | 0.00 | 0.00 | 62 | 1009.5 |
| 20260506151338 | 58 | 72 | 7.0 | 13.0 | 0.00 | 0.00 | 0.00 | 62 | 1009.6 |
| 20260506151138 | 58 | 71 | 5.2 | 13.0 | 0.00 | 0.00 | 0.00 | 61 | 1009.6 |
| 20260506150937 | 58 | 0 | 2.6 | 13.0 | 0.00 | 0.00 | 0.00 | 61 | 1009.6 |
| 20260506150737 | 58 | 66 | 7.0 | 13.9 | 0.00 | 0.00 | 0.00 | 60 | 1009.6 |
| 20260506150539 | 58 | 61 | 6.1 | 13.9 | 0.00 | 0.00 | 0.00 | 60 | 1009.5 |
| 20260506150336 | 58 | 0 | 6.1 | 13.9 | 0.00 | 0.00 | 0.00 | 61 | 1009.5 |
| 20260506150137 | 58 | 0 | 5.2 | 13.9 | 0.00 | 0.00 | 0.00 | 60 | 1009.5 |
| 20260506145937 | 58 | 0 | 7.0 | 13.9 | 0.00 | 0.00 | 0.00 | 62 | 1009.5 |
| 20260506145738 | 58 | 0 | 8.7 | 13.9 | 0.00 | 0.00 | 0.00 | 61 | 1009.5 |
| 20260506145539 | 58 | 82 | 7.0 | 13.9 | 0.00 | 0.00 | 0.00 | 62 | 1009.4 |
| 20260506145338 | 58 | 0 | 7.0 | 14.8 | 0.00 | 0.00 | 0.00 | 61 | 1009.4 |
| 20260506145140 | 58 | 79 | 8.7 | 16.5 | 0.00 | 0.00 | 0.00 | 61 | 1009.4 |
| 20260506144940 | 58 | 0 | 7.0 | 18.2 | 0.00 | 0.00 | 0.00 | 61 | 1009.5 |
| 20260506144740 | 58 | 71 | 7.0 | 18.2 | 0.00 | 0.00 | 0.00 | 61 | 1009.5 |
| 20260506144541 | 58 | 82 | 7.0 | 18.2 | 0.00 | 0.00 | 0.00 | 61 | 1009.5 |
| 20260506144340 | 58 | 51 | 11.3 | 18.2 | 0.00 | 0.00 | 0.00 | 62 | 1009.5 |
| 20260506144139 | 58 | 92 | 12.2 | 18.2 | 0.00 | 0.00 | 0.00 | 62 | 1009.4 |
| 20260506143939 | 57 | 79 | 7.8 | 14.8 | 0.00 | 0.00 | 0.00 | 62 | 1009.5 |
| 20260506143740 | 57 | 71 | 7.8 | 14.8 | 0.00 | 0.00 | 0.00 | 62 | 1009.3 |
| 20260506143541 | 57 | 0 | 7.8 | 14.8 | 0.00 | 0.00 | 0.00 | 62 | 1009.3 |
| 20260506143334 | 56 | 71 | 9.6 | 16.5 | 0.00 | 0.00 | 0.00 | 62 | 1009.3 |
| 20260506143131 | 56 | 80 | 9.6 | 16.5 | 0.00 | 0.00 | 0.00 | 63 | 1009.2 |
| 20260506142931 | 56 | 32 | 5.2 | 16.5 | 0.00 | 0.00 | 0.00 | 63 | 1009.2 |
| 20260506142731 | 56 | 0 | 6.1 | 16.5 | 0.00 | 0.00 | 0.00 | 63 | 1009.3 |
| 20260506142531 | 56 | 97 | 8.7 | 16.5 | 0.00 | 0.00 | 0.00 | 63 | 1009.3 |
| 20260506142331 | 56 | 72 | 4.3 | 13.9 | 0.00 | 0.00 | 0.00 | 63 | 1009.3 |
| 20260506142131 | 56 | 78 | 6.1 | 13.9 | 0.00 | 0.00 | 0.00 | 63 | 1009.4 |
| 20260506141931 | 56 | 0 | 4.3 | 13.0 | 0.00 | 0.00 | 0.00 | 63 | 1009.4 |
| 20260506141731 | 56 | 111 | 8.7 | 13.9 | 0.00 | 0.00 | 0.00 | 63 | 1009.4 |
| 20260506141531 | 56 | 0 | 6.1 | 13.9 | 0.00 | 0.00 | 0.00 | 63 | 1009.4 |
| 20260506141332 | 56 | 63 | 10.4 | 13.9 | 0.00 | 0.00 | 0.00 | 63 | 1009.3 |
| 20260506141131 | 56 | 0 | 7.0 | 13.9 | 0.00 | 0.00 | 0.00 | 63 | 1009.4 |
| 20260506140934 | 56 | 0 | 9.6 | 13.9 | 0.00 | 0.00 | 0.00 | 63 | 1009.3 |
| 20260506140735 | 56 | 103 | 5.2 | 13.0 | 0.00 | 0.00 | 0.00 | 63 | 1009.3 |
| 20260506140534 | 56 | 0 | 4.3 | 13.0 | 0.00 | 0.00 | 0.00 | 63 | 1009.4 |
| 20260506140329 | 56 | 66 | 6.1 | 13.0 | 0.00 | 0.00 | 0.00 | 63 | 1009.4 |
| 20260506140106 | 56 | 61 | 8.7 | 13.0 | 0.00 | 0.00 | 0.00 | 63 | 1009.3 |
| 20260506135905 | 56 | 61 | 7.8 | 13.0 | 0.00 | 0.00 | 0.00 | 63 | 1009.4 |
| 20260506135705 | 57 | 66 | 7.8 | 16.5 | 0.00 | 0.00 | 0.00 | 63 | 1009.4 |
| 20260506135507 | 57 | 102 | 5.2 | 16.5 | 0.00 | 0.00 | 0.00 | 63 | 1009.4 |
| 20260506135306 | 57 | 0 | 9.6 | 16.5 | 0.00 | 0.00 | 0.00 | 63 | 1009.3 |
| 20260506135105 | 57 | 0 | 8.7 | 16.5 | 0.00 | 0.00 | 0.00 | 62 | 1009.4 |
| 20260506134906 | 57 | 76 | 8.7 | 16.5 | 0.00 | 0.00 | 0.00 | 62 | 1009.4 |
| 20260506134705 | 57 | 75 | 6.1 | 14.8 | 0.00 | 0.00 | 0.00 | 62 | 1009.3 |
| 20260506134506 | 58 | 104 | 8.7 | 14.8 | 0.00 | 0.00 | 0.00 | 62 | 1009.3 |
| 20260506134305 | 58 | 76 | 6.1 | 14.8 | 0.00 | 0.00 | 0.00 | 62 | 1009.3 |
| 20260506134105 | 58 | 69 | 5.2 | 14.8 | 0.00 | 0.00 | 0.00 | 62 | 1009.3 |
| 20260506133906 | 58 | 0 | 5.2 | 16.5 | 0.00 | 0.00 | 0.00 | 62 | 1009.3 |
| 20260506133705 | 58 | 0 | 7.8 | 16.5 | 0.00 | 0.00 | 0.00 | 62 | 1009.2 |
| 20260506133505 | 58 | 0 | 7.0 | 18.2 | 0.00 | 0.00 | 0.00 | 62 | 1009.2 |
| 20260506133306 | 58 | 63 | 7.8 | 20.0 | 0.00 | 0.00 | 0.00 | 62 | 1009.2 |
| 20260506133105 | 58 | 0 | 13.0 | 20.0 | 0.00 | 0.00 | 0.00 | 62 | 1009.2 |
| 20260506132906 | 58 | 75 | 11.3 | 20.0 | 0.00 | 0.00 | 0.00 | 62 | 1009.2 |
| 20260506132706 | 58 | 0 | 13.9 | 20.0 | 0.00 | 0.00 | 0.00 | 62 | 1009.1 |
| 20260506132505 | 58 | 58 | 11.3 | 20.0 | 0.00 | 0.00 | 0.00 | 62 | 1009.1 |
| 20260506132307 | 58 | 0 | 5.2 | 15.6 | 0.00 | 0.00 | 0.00 | 62 | 1009.1 |
| 20260506132105 | 58 | 59 | 9.6 | 15.6 | 0.00 | 0.00 | 0.00 | 62 | 1009.1 |
| 20260506131835 | 58 | 66 | 7.8 | 16.5 | 0.00 | 0.00 | 0.00 | 62 | 1009.1 |
| 20260506131635 | 58 | 0 | 8.7 | 16.5 | 0.00 | 0.00 | 0.00 | 62 | 1009.1 |
| 20260506131434 | 58 | 0 | 9.6 | 16.5 | 0.00 | 0.00 | 0.00 | 62 | 1009.1 |
| 20260506131235 | 58 | 72 | 7.0 | 16.5 | 0.00 | 0.00 | 0.00 | 62 | 1009.2 |
| 20260506131035 | 58 | 68 | 8.7 | 16.5 | 0.00 | 0.00 | 0.00 | 62 | 1009.2 |
| 20260506130835 | 58 | 54 | 8.7 | 16.5 | 0.00 | 0.00 | 0.00 | 62 | 1009.2 |
| 20260506130634 | 58 | 78 | 8.7 | 16.5 | 0.00 | 0.00 | 0.00 | 62 | 1009.1 |
| 20260506130434 | 58 | 0 | 8.7 | 16.5 | 0.00 | 0.00 | 0.00 | 62 | 1009.2 |
| 20260506130234 | 58 | 0 | 10.4 | 16.5 | 0.00 | 0.00 | 0.00 | 62 | 1009.3 |
| 20260506130034 | 58 | 71 | 11.3 | 16.5 | 0.00 | 0.00 | 0.00 | 62 | 1009.1 |
| 20260506125834 | 58 | 66 | 8.7 | 16.5 | 0.00 | 0.00 | 0.00 | 62 | 1009.1 |
| 20260506125635 | 58 | 93 | 10.4 | 16.5 | 0.00 | 0.00 | 0.00 | 62 | 1009.1 |
| 20260506125435 | 58 | 92 | 9.6 | 16.5 | 0.00 | 0.00 | 0.00 | 62 | 1009.0 |
| 20260506125234 | 58 | 65 | 10.4 | 16.5 | 0.00 | 0.00 | 0.00 | 62 | 1009.1 |
| 20260506125034 | 58 | 0 | 11.3 | 16.5 | 0.00 | 0.00 | 0.00 | 62 | 1009.0 |
| 20260506124834 | 58 | 0 | 11.3 | 16.5 | 0.00 | 0.00 | 0.00 | 62 | 1009.1 |
| 20260506124635 | 58 | 0 | 10.4 | 17.4 | 0.00 | 0.00 | 0.00 | 62 | 1009.0 |
| 20260506124435 | 58 | 0 | 9.6 | 17.4 | 0.00 | 0.00 | 0.00 | 62 | 1009.1 |
| 20260506124234 | 57 | 59 | 10.4 | 17.4 | 0.00 | 0.00 | 0.00 | 62 | 1009.1 |
| 20260506124035 | 57 | 100 | 10.4 | 17.4 | 0.00 | 0.00 | 0.00 | 62 | 1009.0 |
| 20260506123833 | 57 | 93 | 15.6 | 17.4 | 0.00 | 0.00 | 0.00 | 62 | 1009.0 |
| 20260506123635 | 57 | 72 | 13.9 | 17.4 | 0.00 | 0.00 | 0.00 | 62 | 1008.9 |
| 20260506123433 | 57 | 54 | 14.8 | 17.4 | 0.00 | 0.00 | 0.00 | 62 | 1008.9 |
| 20260506123234 | 57 | 75 | 13.0 | 15.6 | 0.00 | 0.00 | 0.00 | 62 | 1008.9 |
| 20260506123034 | 57 | 79 | 12.2 | 15.6 | 0.00 | 0.00 | 0.00 | 62 | 1008.9 |
| 20260506122834 | 57 | 107 | 11.3 | 14.8 | 0.00 | 0.00 | 0.00 | 62 | 1008.9 |
| 20260506122634 | 57 | 79 | 11.3 | 14.8 | 0.00 | 0.00 | 0.00 | 62 | 1008.9 |
| 20260506122433 | 58 | 96 | 7.8 | 14.8 | 0.00 | 0.00 | 0.00 | 62 | 1008.8 |
| 20260506122234 | 58 | 0 | 7.0 | 14.8 | 0.00 | 0.00 | 0.00 | 63 | 1008.8 |
| 20260506122033 | 58 | 0 | 8.7 | 14.8 | 0.00 | 0.00 | 0.00 | 62 | 1009.0 |
| 20260506121833 | 58 | 0 | 8.7 | 14.8 | 0.00 | 0.00 | 0.00 | 62 | 1008.8 |
| 20260506121633 | 58 | 59 | 7.8 | 14.8 | 0.00 | 0.00 | 0.00 | 62 | 1008.9 |
| 20260506121433 | 58 | 75 | 5.2 | 17.4 | 0.00 | 0.00 | 0.00 | 62 | 1009.0 |
| 20260506121233 | 58 | 0 | 6.1 | 17.4 | 0.00 | 0.00 | 0.00 | 62 | 1008.9 |
| 20260506121033 | 58 | 66 | 8.7 | 17.4 | 0.00 | 0.00 | 0.00 | 62 | 1008.9 |
| 20260506120833 | 58 | 0 | 10.4 | 17.4 | 0.00 | 0.00 | 0.00 | 62 | 1009.0 |
| 20260506120633 | 58 | 69 | 12.2 | 17.4 | 0.00 | 0.00 | 0.00 | 62 | 1008.9 |
| 20260506120433 | 58 | 0 | 11.3 | 14.8 | 0.00 | 0.00 | 0.00 | 62 | 1008.9 |
| 20260506120233 | 58 | 0 | 8.7 | 14.8 | 0.00 | 0.00 | 0.00 | 62 | 1008.9 |
| 20260506120034 | 58 | 0 | 8.7 | 14.8 | 0.00 | 0.00 | 0.00 | 62 | 1008.9 |
| 20260506115833 | 58 | 51 | 7.8 | 14.8 | 0.00 | 0.00 | 0.00 | 62 | 1008.8 |
| 20260506115633 | 58 | 55 | 8.7 | 14.8 | 0.00 | 0.00 | 0.00 | 62 | 1008.8 |
| 20260506115434 | 58 | 59 | 11.3 | 14.8 | 0.00 | 0.00 | 0.00 | 62 | 1008.8 |
| 20260506115232 | 58 | 111 | 11.3 | 14.8 | 0.00 | 0.00 | 0.00 | 62 | 1008.8 |
| 20260506115033 | 57 | 0 | 7.0 | 14.8 | 0.00 | 0.00 | 0.00 | 62 | 1008.8 |
| 20260506114832 | 57 | 71 | 8.7 | 14.8 | 0.00 | 0.00 | 0.00 | 62 | 1008.8 |
| 20260506114632 | 57 | 0 | 10.4 | 15.6 | 0.00 | 0.00 | 0.00 | 62 | 1009.0 |
| 20260506114433 | 57 | 62 | 10.4 | 16.5 | 0.00 | 0.00 | 0.00 | 62 | 1008.8 |
| 20260506114232 | 57 | 65 | 10.4 | 17.4 | 0.00 | 0.00 | 0.00 | 62 | 1008.8 |
| 20260506114033 | 58 | 51 | 11.3 | 17.4 | 0.00 | 0.00 | 0.00 | 63 | 1008.7 |
| 20260506113832 | 58 | 0 | 13.9 | 17.4 | 0.00 | 0.00 | 0.00 | 62 | 1008.8 |
| 20260506113632 | 58 | 0 | 13.0 | 17.4 | 0.00 | 0.00 | 0.00 | 62 | 1008.7 |
| 20260506113432 | 58 | 86 | 13.9 | 17.4 | 0.00 | 0.00 | 0.00 | 62 | 1008.7 |
| 20260506113232 | 58 | 0 | 13.0 | 16.5 | 0.00 | 0.00 | 0.00 | 62 | 1008.8 |
| 20260506113032 | 59 | 49 | 13.9 | 16.5 | 0.00 | 0.00 | 0.00 | 62 | 1008.8 |
| 20260506112833 | 59 | 0 | 9.6 | 15.6 | 0.00 | 0.00 | 0.00 | 62 | 1008.8 |
| 20260506112633 | 59 | 0 | 9.6 | 15.6 | 0.00 | 0.00 | 0.00 | 62 | 1008.7 |
| 20260506112432 | 59 | 71 | 9.6 | 15.6 | 0.00 | 0.00 | 0.00 | 62 | 1008.8 |
| 20260506112232 | 59 | 76 | 5.2 | 15.6 | 0.00 | 0.00 | 0.00 | 62 | 1008.7 |
| 20260506112033 | 59 | 56 | 11.3 | 16.5 | 0.00 | 0.00 | 0.00 | 62 | 1008.8 |
| 20260506111832 | 59 | 31 | 7.8 | 16.5 | 0.00 | 0.00 | 0.00 | 62 | 1008.7 |
| 20260506111632 | 59 | 69 | 10.4 | 16.5 | 0.00 | 0.00 | 0.00 | 62 | 1008.7 |
| 20260506111432 | 59 | 52 | 10.4 | 16.5 | 0.00 | 0.00 | 0.00 | 62 | 1008.7 |
| 20260506111232 | 59 | 0 | 10.4 | 16.5 | 0.00 | 0.00 | 0.00 | 62 | 1008.7 |
| 20260506111032 | 59 | 0 | 10.4 | 16.5 | 0.00 | 0.00 | 0.00 | 62 | 1008.6 |
| 20260506110832 | 59 | 68 | 9.6 | 13.0 | 0.00 | 0.00 | 0.00 | 62 | 1008.7 |
| 20260506110632 | 59 | 72 | 7.0 | 13.9 | 0.00 | 0.00 | 0.00 | 62 | 1008.7 |
| 20260506110430 | 59 | 0 | 6.1 | 13.9 | 0.00 | 0.00 | 0.00 | 62 | 1008.6 |
| 20260506110233 | 59 | 66 | 3.5 | 13.9 | 0.00 | 0.00 | 0.00 | 62 | 1008.7 |
| 20260506110033 | 59 | 71 | 4.3 | 13.9 | 0.00 | 0.00 | 0.00 | 62 | 1008.7 |
| 20260506105831 | 59 | 69 | 8.7 | 13.9 | 0.00 | 0.00 | 0.00 | 62 | 1008.7 |
| 20260506105632 | 58 | 61 | 8.7 | 13.9 | 0.00 | 0.00 | 0.00 | 62 | 1008.7 |
| 20260506105435 | 58 | 69 | 9.6 | 13.9 | 0.00 | 0.00 | 0.00 | 61 | 1008.6 |
| 20260506105234 | 58 | 62 | 6.1 | 13.0 | 0.00 | 0.00 | 0.00 | 62 | 1008.7 |
| 20260506105034 | 58 | 62 | 7.8 | 13.0 | 0.00 | 0.00 | 0.00 | 61 | 1008.7 |
| 20260506104833 | 58 | 71 | 7.8 | 13.0 | 0.00 | 0.00 | 0.00 | 61 | 1008.7 |
| 20260506104606 | 58 | 61 | 7.8 | 13.0 | 0.00 | 0.00 | 0.00 | 61 | 1008.7 |
| 20260506104404 | 58 | 0 | 7.8 | 13.0 | 0.00 | 0.00 | 0.00 | 60 | 1008.7 |
| 20260506104204 | 58 | 78 | 8.7 | 13.0 | 0.00 | 0.00 | 0.00 | 60 | 1008.7 |
| 20260506104006 | 58 | 73 | 5.2 | 11.3 | 0.00 | 0.00 | 0.00 | 59 | 1008.8 |
| 20260506103802 | 58 | 56 | 7.0 | 11.3 | 0.00 | 0.00 | 0.00 | 60 | 1008.8 |
| 20260506103553 | 58 | 73 | 4.3 | 12.2 | 0.00 | 0.00 | 0.00 | 60 | 1008.7 |
| 20260506103141 | 57 | 0 | 4.3 | 12.2 | 0.00 | 0.00 | 0.00 | 61 | 1008.6 |
| 20260506102933 | 57 | 54 | 2.6 | 12.2 | 0.00 | 0.00 | 0.00 | 61 | 1008.7 |
| 20260506102732 | 57 | 79 | 4.3 | 12.2 | 0.00 | 0.00 | 0.00 | 61 | 1008.7 |
| 20260506102531 | 57 | 54 | 7.0 | 13.9 | 0.00 | 0.00 | 0.00 | 61 | 1008.7 |
| 20260506102331 | 57 | 73 | 6.1 | 13.9 | 0.00 | 0.00 | 0.00 | 61 | 1008.7 |
| 20260506102131 | 57 | 44 | 7.0 | 13.9 | 0.00 | 0.00 | 0.00 | 61 | 1008.7 |
| 20260506101932 | 57 | 56 | 4.3 | 13.9 | 0.00 | 0.00 | 0.00 | 61 | 1008.6 |
| 20260506101730 | 57 | 0 | 7.8 | 13.9 | 0.00 | 0.00 | 0.00 | 61 | 1008.7 |
| 20260506101531 | 57 | 78 | 5.2 | 12.2 | 0.00 | 0.00 | 0.00 | 61 | 1008.6 |
| 20260506101331 | 57 | 79 | 4.3 | 12.2 | 0.00 | 0.00 | 0.00 | 61 | 1008.5 |
| 20260506101131 | 57 | 0 | 5.2 | 12.2 | 0.00 | 0.00 | 0.00 | 60 | 1008.6 |
| 20260506100931 | 56 | 71 | 3.5 | 13.0 | 0.00 | 0.00 | 0.00 | 61 | 1008.6 |
| 20260506100731 | 56 | 0 | 6.1 | 13.0 | 0.00 | 0.00 | 0.00 | 61 | 1008.6 |
| 20260506100531 | 56 | 54 | 6.1 | 13.0 | 0.00 | 0.00 | 0.00 | 60 | 1008.5 |
| 20260506100331 | 56 | 68 | 7.0 | 13.0 | 0.00 | 0.00 | 0.00 | 60 | 1008.5 |
| 20260506100130 | 56 | 109 | 7.0 | 13.0 | 0.00 | 0.00 | 0.00 | 60 | 1008.5 |
| 20260506095931 | 56 | 54 | 7.0 | 11.3 | 0.00 | 0.00 | 0.00 | 60 | 1008.5 |
| 20260506095730 | 56 | 55 | 7.0 | 11.3 | 0.00 | 0.00 | 0.00 | 60 | 1008.5 |
| 20260506095532 | 56 | 55 | 5.2 | 11.3 | 0.00 | 0.00 | 0.00 | 59 | 1008.5 |
| 20260506095330 | 56 | 89 | 4.3 | 11.3 | 0.00 | 0.00 | 0.00 | 58 | 1008.5 |
| 20260506095130 | 56 | 68 | 5.2 | 11.3 | 0.00 | 0.00 | 0.00 | 57 | 1008.5 |
| 20260506094930 | 56 | 80 | 1.7 | 10.4 | 0.00 | 0.00 | 0.00 | 58 | 1008.5 |
| 20260506094731 | 56 | 61 | 4.3 | 10.4 | 0.00 | 0.00 | 0.00 | 57 | 1008.4 |
| 20260506094532 | 56 | 72 | 2.6 | 13.9 | 0.00 | 0.00 | 0.00 | 57 | 1008.5 |
| 20260506094330 | 56 | 0 | 7.0 | 13.9 | 0.00 | 0.00 | 0.00 | 58 | 1008.4 |
| 20260506094130 | 56 | 73 | 7.0 | 13.9 | 0.00 | 0.00 | 0.00 | 57 | 1008.4 |
| 20260506093931 | 56 | 79 | 6.1 | 13.9 | 0.00 | 0.00 | 0.00 | 57 | 1008.4 |
| 20260506093731 | 57 | 0 | 8.7 | 13.9 | 0.00 | 0.00 | 0.00 | 57 | 1008.4 |
| 20260506093531 | 57 | 0 | 8.7 | 13.0 | 0.00 | 0.00 | 0.00 | 56 | 1008.4 |
| 20260506093330 | 57 | 106 | 1.7 | 10.4 | 0.00 | 0.00 | 0.00 | 55 | 1008.4 |
| 20260506093130 | 57 | 58 | 0.9 | 10.4 | 0.00 | 0.00 | 0.00 | 55 | 1008.4 |
| 20260506092930 | 57 | 59 | 1.7 | 10.4 | 0.00 | 0.00 | 0.00 | 55 | 1008.4 |
| 20260506092730 | 57 | 61 | 2.6 | 11.3 | 0.00 | 0.00 | 0.00 | 53 | 1008.4 |
| 20260506092531 | 57 | 0 | 7.8 | 11.3 | 0.00 | 0.00 | 0.00 | 49 | 1008.4 |
| 20260506092330 | 57 | 58 | 4.3 | 11.3 | 0.00 | 0.00 | 0.00 | 50 | 1008.4 |
| 20260506092130 | 57 | 0 | 4.3 | 11.3 | 0.00 | 0.00 | 0.00 | 50 | 1008.5 |
| 20260506091907 | 57 | 0 | 5.2 | 11.3 | 0.00 | 0.00 | 0.00 | 48 | 1008.5 |
| 20260506091705 | 57 | 48 | 1.7 | 11.3 | 0.00 | 0.00 | 0.00 | 48 | 1008.4 |
| 20260506091506 | 57 | 104 | 6.1 | 11.3 | 0.00 | 0.00 | 0.00 | 44 | 1008.4 |
| 20260506091305 | 57 | 71 | 5.2 | 11.3 | 0.00 | 0.00 | 0.00 | 41 | 1008.4 |
| 20260506091106 | 56 | 0 | 2.6 | 13.0 | 0.00 | 0.00 | 0.00 | 38 | 1008.4 |
| 20260506090832 | 56 | 0 | 2.6 | 13.0 | 0.00 | 0.00 | 0.00 | 36 | 1008.4 |
| 20260506090631 | 56 | 0 | 5.2 | 13.0 | 0.00 | 0.00 | 0.00 | 36 | 1008.4 |
| 20260506090431 | 56 | 0 | 3.5 | 13.0 | 0.00 | 0.00 | 0.00 | 34 | 1008.4 |
| 20260506090231 | 56 | 0 | 4.3 | 13.9 | 0.00 | 0.00 | 0.00 | 36 | 1008.5 |
| 20260506090032 | 56 | 75 | 1.7 | 13.9 | 0.00 | 0.00 | 0.00 | 36 | 1008.4 |
| 20260506085829 | 56 | 0 | 3.5 | 13.9 | 0.00 | 0.00 | 0.00 | 36 | 1008.4 |
| 20260506085630 | 56 | 76 | 5.2 | 13.9 | 0.00 | 0.00 | 0.00 | 34 | 1008.3 |
| 20260506085430 | 56 | 71 | 7.8 | 13.9 | 0.00 | 0.00 | 0.00 | 34 | 1008.4 |
| 20260506085228 | 56 | 83 | 5.2 | 10.4 | 0.00 | 0.00 | 0.00 | 36 | 1008.4 |
| 20260506085029 | 56 | 65 | 3.5 | 9.6 | 0.00 | 0.00 | 0.00 | 35 | 1008.4 |
| 20260506084828 | 56 | 71 | 4.3 | 9.6 | 0.00 | 0.00 | 0.00 | 30 | 1008.4 |
| 20260506084630 | 56 | 62 | 2.6 | 11.3 | 0.00 | 0.00 | 0.00 | 29 | 1008.4 |
| 20260506084429 | 55 | 0 | 2.6 | 12.2 | 0.00 | 0.00 | 0.00 | 32 | 1008.4 |
| 20260506084228 | 55 | 66 | 4.3 | 12.2 | 0.00 | 0.00 | 0.00 | 30 | 1008.4 |
| 20260506084029 | 55 | 51 | 3.5 | 13.0 | 0.00 | 0.00 | 0.00 | 30 | 1008.4 |
| 20260506083829 | 55 | 127 | 6.1 | 13.0 | 0.00 | 0.00 | 0.00 | 29 | 1008.4 |
| 20260506083629 | 55 | 0 | 5.2 | 13.0 | 0.00 | 0.00 | 0.00 | 29 | 1008.4 |
| 20260506083428 | 55 | 0 | 6.1 | 13.0 | 0.00 | 0.00 | 0.00 | 26 | 1008.3 |
| 20260506083229 | 55 | 65 | 6.1 | 13.0 | 0.00 | 0.00 | 0.00 | 26 | 1008.4 |
| 20260506083029 | 55 | 0 | 1.7 | 12.2 | 0.00 | 0.00 | 0.00 | 24 | 1008.4 |
| 20260506082828 | 55 | 62 | 4.3 | 13.9 | 0.00 | 0.00 | 0.00 | 24 | 1008.4 |
| 20260506082628 | 55 | 62 | 6.1 | 13.9 | 0.00 | 0.00 | 0.00 | 25 | 1008.3 |
| 20260506082429 | 55 | 93 | 7.8 | 13.9 | 0.00 | 0.00 | 0.00 | 24 | 1008.3 |
| 20260506082228 | 55 | 0 | 7.8 | 13.9 | 0.00 | 0.00 | 0.00 | 23 | 1008.3 |
| 20260506082028 | 55 | 75 | 10.4 | 13.9 | 0.00 | 0.00 | 0.00 | 20 | 1008.3 |
| 20260506081828 | 55 | 61 | 1.7 | 12.2 | 0.00 | 0.00 | 0.00 | 17 | 1008.2 |
| 20260506081628 | 55 | 59 | 2.6 | 12.2 | 0.00 | 0.00 | 0.00 | 15 | 1008.3 |
| 20260506081429 | 55 | 45 | 5.2 | 12.2 | 0.00 | 0.00 | 0.00 | 11 | 1008.3 |
| 20260506081228 | 55 | 76 | 5.2 | 12.2 | 0.00 | 0.00 | 0.00 | 8 | 1008.3 |
| 20260506081028 | 54 | 54 | 6.1 | 12.2 | 0.00 | 0.00 | 0.00 | 6 | 1008.4 |
| 20260506080820 | 54 | 0 | 1.7 | 12.2 | 0.00 | 0.00 | 0.00 | 3 | 1008.3 |
| 20260506080615 | 54 | 65 | 3.5 | 12.2 | 0.00 | 0.00 | 0.00 | 6 | 1008.3 |
| 20260506080408 | 54 | 73 | 0.0 | 12.2 | 0.00 | 0.00 | 0.00 | 5 | 1008.3 |
| 20260506080206 | 54 | 65 | 5.2 | 12.2 | 0.00 | 0.00 | 0.00 | 5 | 1008.3 |
| 20260506073405 | 53 | 0 | 2.6 | 11.3 | 0.00 | 0.00 | 0.00 | 1 | 1008.2 |
| 20260506073205 | 53 | 0 | 0.0 | 11.3 | 0.00 | 0.00 | 0.00 | 1 | 1008.2 |
| 20260506073007 | 53 | 48 | 4.3 | 11.3 | 0.00 | 0.00 | 0.00 | 1 | 1008.2 |
| 20260506072805 | 53 | 78 | 7.0 | 11.3 | 0.00 | 0.00 | 0.00 | 1 | 1008.3 |
| 20260506072605 | 53 | 58 | 3.5 | 11.3 | 0.00 | 0.00 | 0.00 | 1 | 1008.2 |
| 20260506072406 | 53 | 0 | 1.7 | 10.4 | 0.00 | 0.00 | 0.00 | 1 | 1008.2 |
| 20260506072205 | 52 | 59 | 1.7 | 10.4 | 0.00 | 0.00 | 0.00 | 1 | 1008.2 |
| 20260506072005 | 52 | 61 | 1.7 | 10.4 | 0.00 | 0.00 | 0.00 | 1 | 1008.2 |
| 20260506071803 | 52 | 0 | 3.5 | 10.4 | 0.00 | 0.00 | 0.00 | 1 | 1008.2 |
| 20260506071604 | 52 | 0 | 2.6 | 10.4 | 0.00 | 0.00 | 0.00 | 1 | 1008.2 |
| 20260506071403 | 52 | 111 | 1.7 | 10.4 | 0.00 | 0.00 | 0.00 | 1 | 1008.2 |
| 20260506071205 | 52 | 75 | 1.7 | 10.4 | 0.00 | 0.00 | 0.00 | 1 | 1008.2 |
| 20260506071004 | 52 | 71 | 3.5 | 11.3 | 0.00 | 0.00 | 0.00 | 1 | 1008.2 |
| 20260506070804 | 52 | 0 | 4.3 | 11.3 | 0.00 | 0.00 | 0.00 | 1 | 1008.1 |
| 20260506070605 | 52 | 55 | 6.1 | 11.3 | 0.00 | 0.00 | 0.00 | 1 | 1008.3 |
| 20260506070404 | 52 | 0 | 4.3 | 11.3 | 0.00 | 0.00 | 0.00 | 1 | 1008.3 |
| 20260506070205 | 52 | 51 | 6.1 | 11.3 | 0.00 | 0.00 | 0.00 | 1 | 1008.2 |